Location: Recife
(8.0585°S, 34.8848°W)
Time: 13:03:33
(UTC-03:00)

Vanguard 2 - Pass Details

Date: 22 April 2026
Orbit: 553 x 2895 km, 32.9° (Epoch: 13 May)

Event Time Altitude Azimuth Distance (km) Brightness Sun altitude
Rises 20:32:24 0° 263° (W) 4,957 12.3 -49.1°
Reaches altitude 10° 20:35:50 10° 253° (WSW) 4,290 11.7 -49.9°
Enters shadow 20:44:53 32° 205° (SSW) 3,534 10.8 -52.1°
